User: anonymous   Login
Location: Ford County Road and Bridge Department
(37.7686°N, 99.9762°W)
Time: 02:23:38
(UTC+00:00)
Language:

Cosmos 2360 Rocket - Orbit

View from above orbital plane
View from above orbital plane
View from above satellite
View from above satellite

Ground track
Ground track

The orbit data is extracted from the following two-line orbital elements,

1 25407U 98045B   20090.35008916 -.00000252 +00000-0 -10390-3 0  9994
2 25407 071.0115 063.8458 0005371 099.8978 260.2751 14.15797850119882
Epoch (UTC): 30 March 2020 08:24:07
Eccentricity: 0.0005371
inclination: 71.0115°
perigee height: 836 km
apogee height: 843 km
right ascension of ascending node: 63.8458°
argument of perigee: 99.8978°
revolutions per day: 14.15797850
mean anomaly at epoch: 260.2751°
orbit number at epoch: 11988

The dashed part of the orbit path shows where the satellite is in the earth's shadow,  

DLR